Track STARLINK-2282 now! 10-day predictions STARLINK-2282 is classified as:
1 48018U 21024AT 22181.59894729 .00001622 00000-0 12777-3 0 9995 2 48018 53.0548 253.6339 0001392 60.3480 299.7647 15.06395848 71589